Regional Weather Roundup
Issued by NWS Spokane, WA

Home | Current Version | Previous Version | Text Only | Print | Product List | Glossary On
Versions: 1 2 3 4 5 6 7 8 9 10 11 12 13 14 15 16 17 18 19 20 21 22 23 24 25 26 27 28 29 30 31 32 33 34 35 36 37 38 39 40 41 42 43 44 45 46 47 48 49 50
077
NZUS01 KOTX 060800
RWROTX
EASTERN WASHINGTON/NORTHERN IDAHO ROUNDUP
NATIONAL WEATHER SERVICE, SPOKANE WA
1200 AM PST SAT FEB 06 2016

Note: "fair" indicated few or no clouds below 12,000 feet with no
significant weather and/or obstructions to visibility.

...NORTHEAST WASHINGTON AND NORTHERN IDAHO PANHANDLE...

CITY           SKY/WX    TMP DP  RH WIND       PRES   REMARKS
SPOKANE INTL   CLOUDY    44  35  70 SW24G30   30.05F
SPOKANE DOWNTO CLOUDY    46  38  73 SW15      30.09F
COEUR D ALENE  CLOUDY    43  36  75 SW25      30.06F
DEER PARK      CLOUDY    41  33  73 S16       30.05F

...SOUTHEAST WASHINGTON AND SOUTHERN IDAHO PANHANDLE...

CITY           SKY/WX    TMP DP  RH WIND       PRES   REMARKS
WALLA WALLA    CLOUDY    50  36  58 S16G23    30.24R
PULLMAN/MOSCOW CLOUDY    44  31  60 S12       30.19R
LOWELL           N/A     37  35  92 CALM      30.31R

...COLUMBIA BASIN...

CITY           SKY/WX    TMP DP  RH WIND       PRES   REMARKS
EPHRATA        CLEAR     36  33  89 SW14      30.12R
MOSES LAKE     CLEAR     39  34  82 S10       30.15R
TRI CITIES     MOCLDY    51  37  58 SW18G25   30.21S
HERMISTON      CLOUDY    48  40  73 SW7       30.27R
PENDLETON      CLOUDY    45  37  73 W21G30    30.25R

...EAST SLOPES CASCADES...

CITY           SKY/WX    TMP DP  RH WIND       PRES   REMARKS
THE DALLES     PTCLDY    46  36  68 N10       30.29R
YAKIMA         CLEAR     47  28  47 W14       30.18R
ELLENSBURG     CLEAR     38  31  76 W13G20    30.15R
WENATCHEE      CLEAR     34  28  79 VRB5      30.11R WCI  30
OMAK           CLEAR     33  29  85 S9        30.04R WCI  25

...SOUTHERN BRITISH COLUMBIA...

CITY           SKY/WX    TMP DP  RH WIND       PRES   REMARKS

...WESTERN MONTANA...

CITY           SKY/WX    TMP DP  RH WIND       PRES   REMARKS
MISSOULA       PTCLDY    25  23  92 N6        30.16S WCI  18

...NEIGHBORING CITIES...

CITY           SKY/WX    TMP DP  RH WIND       PRES   REMARKS
SEATTLE        CLOUDY    45  38  76 SW21      30.26R



USA.gov is the U.S. government's official web portal to all federal, state and local government web resources and services.